Location: B?ogocice
(50.2413°N, 20.2361°E)
Time: 20:56:24
(UTC+00:00)

ALOS - Visible Passes

Search period start: 19 September 2024 00:00
Search period end: 29 September 2024 00:00
Orbit: 671 x 673 km, 98.0° (Epoch: 19 September)

Date Brightness Start Highest point End Pass type
(mag) Time Alt. Az. Time Alt. Az. Time Alt. Az.
19 Sep 4.3 00:26:19 10° NE 00:29:32 21° E 00:29:32 21° E visible
19 Sep 2.3 02:02:49 10° N 02:07:18 53° WNW 02:07:46 50° W visible
20 Sep 3.3 00:59:01 10° NNE 01:03:06 41° E 01:03:06 41° E visible
20 Sep 3.2 02:36:29 10° N 02:40:24 28° WNW 02:41:20 26° W visible
20 Sep 5.0 23:57:24 10° ENE 23:58:25 11° E 23:58:25 11° E visible
21 Sep 2.2 01:32:08 10° NNE 01:36:39 82° ENE 01:36:39 82° ENE visible
21 Sep 4.0 03:10:34 10° NNW 03:13:20 16° WNW 03:14:53 14° W visible
22 Sep 4.3 00:28:57 10° NE 00:31:57 22° E 00:31:57 22° E visible
22 Sep 2.4 02:05:32 10° N 02:10:00 50° WNW 02:10:12 50° WNW visible
23 Sep 3.3 01:01:41 10° NNE 01:05:30 41° ENE 01:05:30 41° ENE visible
23 Sep 3.3 02:39:12 10° N 02:43:04 27° WNW 02:43:44 26° WNW visible
23 Sep 5.1 23:59:46 10° ENE 00:00:47 12° ENE 00:00:47 12° ENE visible
24 Sep 2.3 01:34:48 10° NNE 01:39:01 74° NNE 01:39:01 74° NNE visible
24 Sep 4.0 03:13:19 10° NNW 03:15:57 15° NW 03:17:15 14° WNW visible
25 Sep 4.4 00:31:32 10° NE 00:34:19 22° ENE 00:34:19 22° ENE visible
25 Sep 2.5 02:08:12 10° N 02:12:32 47° WNW 02:12:32 47° WNW visible
26 Sep 3.4 01:04:17 10° NNE 01:07:49 40° ENE 01:07:49 40° ENE visible
26 Sep 3.3 02:41:52 10° N 02:45:39 26° WNW 02:46:03 25° WNW visible
27 Sep 5.1 00:02:09 10° ENE 00:03:05 12° ENE 00:03:05 12° ENE visible
27 Sep 2.5 01:37:24 10° NNE 01:41:19 64° N 01:41:19 64° N visible
27 Sep 4.0 03:16:01 10° NNW 03:18:31 15° NW 03:19:33 14° WNW visible
28 Sep 4.4 00:34:02 10° NE 00:36:35 22° ENE 00:36:35 22° ENE visible
28 Sep 2.7 02:10:48 10° N 02:14:49 44° NW 02:14:49 44° NW visible
